Station BSLM2 - Jug Bay, Chesapeake Bay Reserve, MD Image indicating link to RSS feed of recent meteorological observations for station BSLM2


Conditions at BSLM2 as of
(9:30 am EDT)
1330 GMT on 05/20/2024:
Note: This report is more than two hours old
     

Click on the graph icon in the table below to see a time series plot of the last five days of that observation.

5-day plot - Wind Direction Wind Direction (WDIR):SSE ( 160 deg true )
5-day plot - Wind Speed Wind Speed (WSPD): 2.9 kts
5-day plot - Atmospheric Pressure Atmospheric Pressure (PRES):30.09 in
5-day plot - Air Temperature Air Temperature (ATMP): 63.1 °F
5-day plot - Dew Point Dew Point (DEWP): 58.6 °F
5-day plot -  Wind Speed, Wind Gust and Atmospheric Pressure Combined plot of Wind Speed, Gust, and Air Pressure
Previous observations
TIME
(EDT)
5-day plot - Wind Direction
WDIR
 
5-day plot - Wind Speed
WSPD
kts
5-day plot - Wind Gust
GST
kts
5-day plot - Wave Height
WVHT
ft
5-day plot - Dominant Wave Period
DPD
sec
5-day plot - Average Wave Period
APD
sec
5-day plot - Mean Wave Direction
MWD
 
5-day plot - Atmospheric Pressure
PRES
in
5-day plot - Pressure Tendency
PTDY
in
5-day plot - Air Temperature
ATMP
°F
5-day plot - Water Temperature
WTMP
°F
5-day plot - Dew Point
DEWP
°F
5-day plot - Salinity
SAL
psu
5-day plot - Visibility
VIS
nmi
5-day plot - Tide (above MLLW)
TIDE
ft
2024-05-20 09:15 amSSE 2.9-----30.09- 63.0- 58.8---
2024-05-20 09:00 am S 1.9-----30.09+0.09 62.1- 58.5---
2024-05-20 08:45 am S 2.9-----30.09- 61.9- 58.6---
2024-05-20 08:30 am SE 1.9-----30.06- 61.7- 59.9---
2024-05-20 08:15 am SE 1.9-----30.06- 61.0- 60.4---
2024-05-20 08:00 amESE 1.0-----30.06+0.06 60.3- 59.9---
2024-05-20 07:45 am- 0.0-----30.06- 59.5- 59.2---
2024-05-20 07:30 am- 0.0-----30.06- 59.2- 58.8---
2024-05-20 07:15 am- 0.0-----30.03- 58.8- 58.5---
2024-05-20 07:00 amESE 2.9-----30.03+0.03 58.8- 58.5---
2024-05-20 06:45 am SE 1.9-----30.03- 58.6- 58.3---
2024-05-20 06:30 am- 0.0-----30.03- 58.1- 57.7---
2024-05-20 06:15 am- 0.0-----30.00- 57.9- 57.6---
2024-05-20 06:00 am- 0.0-----30.00+0.00 57.7- 57.4---
2024-05-20 05:45 am- 0.0-----30.00- 57.4- 57.0---
2024-05-20 05:30 am- 0.0-----30.00- 57.2- 56.8---
2024-05-20 05:15 am- 0.0-----30.00- 57.4- 57.0---
2024-05-20 05:00 am- 0.0-----30.00+0.00 57.9- 57.6---
2024-05-20 04:45 am- 0.0-----30.00- 57.9- 57.6---
2024-05-20 04:30 am- 0.0-----30.00- 58.1- 57.7---
2024-05-20 04:15 am- 0.0-----30.00- 57.9- 57.6---
2024-05-20 04:00 am- 0.0-----30.00-0.03 58.3- 57.9---
2024-05-20 03:45 am- 0.0-----30.00- 58.8- 58.5---
2024-05-20 03:30 am SE 1.0-----30.00- 59.2- 58.8---
2024-05-20 03:15 amESE 1.9-----30.00- 59.4- 59.0---
2024-05-20 03:00 amESE 2.9-----30.00+0.00 60.1- 59.7---
2024-05-20 02:45 am SE 2.9-----30.00- 60.4- 60.1---
2024-05-20 02:30 am SE 4.1-----30.00- 60.1- 59.7---
2024-05-20 02:15 am SE 4.1-----30.00- 60.3- 59.9---
2024-05-20 02:00 am SE 4.1-----30.00+0.00 60.4- 60.1---
2024-05-20 01:45 am SE 2.9-----30.00- 59.5- 59.2---
2024-05-20 01:30 am- 0.0-----30.00- 58.8- 58.5---
2024-05-20 01:15 am- 0.0-----30.00- 59.0- 58.6---
2024-05-20 01:00 am- 0.0-----30.03+0.03 59.5- 59.2---
2024-05-20 12:45 am- 0.0-----30.00- 59.2- 58.8---
2024-05-20 12:30 am- 0.0-----30.00- 59.4- 58.8---
2024-05-20 12:15 am- 0.0-----30.00- 59.7- 59.2---
2024-05-20 12:00 am- 0.0-----30.00+0.03 60.1- 59.5---
2024-05-19 11:45 pm- 0.0-----30.00- 60.1- 59.5---
2024-05-19 11:30 pm- 0.0-----30.00- 60.1- 59.5---
2024-05-19 11:15 pm- 0.0-----30.00- 60.4- 59.9---
2024-05-19 11:00 pm- 0.0-----30.00+0.03 61.0- 60.4---
2024-05-19 10:45 pm- 0.0-----30.00- 61.2- 60.6---
2024-05-19 10:30 pm- 0.0-----30.00- 61.2- 60.3---
2024-05-19 10:15 pm- 0.0-----30.00- 61.3- 60.4---
2024-05-19 10:00 pm- 0.0-----30.00+0.06 61.9- 61.0---
2024-05-19 09:45 pm- 0.0-----30.00- 62.2- 61.2---
2024-05-19 09:30 pm- 0.0-----29.97- 62.6- 61.5---
2024-05-19 09:15 pm- 0.0-----29.97- 63.3- 61.9---
2024-05-19 09:00 pm- 0.0-----29.97+0.03 63.9- 62.4---
2024-05-19 08:45 pm- 0.0-----29.97- 64.2- 62.4---
2024-05-19 08:30 pm- 0.0-----29.97- 65.8- 63.5---
2024-05-19 08:15 pm- 0.0-----29.97- 67.8- 63.9---
2024-05-19 08:00 pm- 0.0-----29.97+0.00 68.7- 64.4---
2024-05-19 07:45 pmWSW 1.0-----29.97- 69.4- 63.9---
2024-05-19 07:30 pmWSW 1.0-----29.94- 74.1- 64.4---
2024-05-19 07:15 pm- 0.0-----29.94- 76.3- 63.5---
2024-05-19 07:00 pmNNE 1.0-----29.94-0.03 75.6- 61.5---
2024-05-19 06:45 pm NE 1.9-----29.94- 76.5- 62.2---
2024-05-19 06:30 pm NE 1.9-----29.94- 75.0- 62.2---
2024-05-19 06:15 pm N 1.0-----29.94- 73.8- 62.8---
2024-05-19 06:00 pm N 1.0-----29.94-0.03 73.8- 61.9---
2024-05-19 05:45 pmNNW 1.0-----29.94- 74.1- 61.9---
2024-05-19 05:30 pm N 1.9-----29.94- 75.0- 61.9---
2024-05-19 05:15 pmWNW 1.0-----29.97- 73.8- 61.5---
2024-05-19 05:00 pmNNW 1.0-----29.97-0.03 74.1- 62.2---
2024-05-19 04:45 pm- 0.0-----29.97- 75.0- 62.2---
2024-05-19 04:30 pm- 0.0-----29.97- 73.8- 64.0---
2024-05-19 04:15 pm- 0.0-----29.97- 72.0- 63.9---
2024-05-19 04:00 pm- 0.0-----29.97-0.03 72.1- 62.4---
2024-05-19 03:45 pm E 1.0-----29.97- 72.5- 62.4---
2024-05-19 03:30 pm N 1.0-----29.97- 71.1- 61.7---
2024-05-19 03:15 pm N 1.9-----29.97- 70.5- 61.7---
2024-05-19 03:00 pmNNW 1.9-----29.97-0.03 70.0- 61.9---